Regional Weather Roundup
Issued by NWS

Home | Current Version | Previous Version | Text Only | Print | Product List | Glossary On
Versions: 1 2 3 4 5 6 7 8 9 10 11 12 13 14 15 16 17 18 19 20 21 22 23 24 25 26 27 28 29 30 31 32 33 34 35 36 37 38 39 40 41 42 43 44 45 46 47 48 49 50
000
ASUS43 KMPX 011001
RWRMN
WEATHER ROUNDUP FOR MINNESOTA
NATIONAL WEATHER SERVICE TWIN CITIES/CHANHASSEN MN
500 AM CDT FRI AUG 01 2014


NOTE: "FAIR" INDICATES FEW OR NO CLOUDS BELOW 12,000 FEET WITH NO
SIGNIFICANT WEATHER AND/OR OBSTRUCTIONS TO VISIBILITY. N/A MEANS
CURRENT SKY AND/OR WEATHER CONDITIONS ARE NOT AVAILABLE.

MNZ060>063-068>070-011100-
   Twin Cities Metro

CITY           SKY/WX    TMP DP  RH WIND       PRES   REMARKS
TWIN CITIES    CLEAR     66  60  81 SW3       30.03R
ST PAUL        CLEAR     65  62  90 CALM      30.03R
CRYSTAL        CLEAR     64  58  80 CALM      30.02R
BLAINE         CLEAR     61  59  94 SW5       30.03R
LAKEVILLE      CLEAR     61  57  88 W3        30.04R
EDEN PRAIRIE   CLEAR     61  59  93 SW5       30.03R
SOUTH ST PAUL  PTCLDY    66  58  76 CALM      30.03R
LAKE ELMO      FAIR      59  59 100 CALM      30.04R
$$
MNZ001>005-007-008-013>017-022>024-027-028-011100-
   Northwest Minnesota

CITY           SKY/WX    TMP DP  RH WIND       PRES   REMARKS
BEMIDJI        FOG       54  53  97 CALM      30.04R VSB 1/4
HALLOCK        CLEAR     57  55  94 NW3       30.04R
ROSEAU         CLEAR     55  52  88 CALM      30.03S
WARROAD        CLEAR     54  50  87 CALM      30.03R
THIEF RVR FALL   N/A     59  57  94 CALM      30.04S VSB 3/4
CROOKSTON      PTCLDY    61  61 100 CALM      30.04S FOG
FOSSTON        PTCLDY    57  55  94 CALM      30.05S FOG
DETROIT LAKES  MOCLDY    64  61  88 CALM      30.06R
MOORHEAD       CLEAR     63  63 100 CALM      30.04R
PARK RAPIDS    CLEAR     57  55  93 CALM      30.04R
$$
MNZ006-009>011-018-025>026-011100-
   North Central Minnesota

CITY           SKY/WX    TMP DP  RH WIND       PRES   REMARKS
BAUDETTE       CLEAR     55  54  96 CALM      30.03S
FLAG ISLAND    CLEAR     64  61  88 CALM      30.01S
INTL FALLS     FOG       47  46  97 CALM      30.02S VSB 3/4
WASKISH        CLEAR     54  52  94 CALM      30.02S FOG
BIG FORK       MOCLDY    52  48  87 CALM      30.04R
LONGVILLE      CLEAR     54  54 100 CALM      30.03S FOG
GRAND RAPIDS   CLEAR     55  52  88 CALM      30.03S
CRANE LAKE     CLEAR     45  45 100 CALM        N/A
ORR            CLEAR     46  45  93 CALM      30.01S
COOK           CLEAR     46  46 100 CALM      30.04R
$$
MNZ012-019>021-037-011100-
   Northeast Minnesota

CITY           SKY/WX    TMP DP  RH WIND       PRES   REMARKS
DULUTH         CLEAR     56  51  84 CALM      30.03R
ELY            CLEAR     46  45  93 CALM      30.03S
HIBBING        CLEAR     48  47  96 CALM      30.03R FOG
EVELETH        FOG       45  45 100 CALM      30.04R VSB 1/4
DULUTH HARBOR  CLEAR     61  57  88 CALM      30.02R
TWO HARBORS    CLEAR     50  45  81 CALM      30.01R
SILVER BAY     CLEAR     45  45 100 CALM      30.02R
GRAND MARAIS     N/A     58  50  75 N3        30.02R
G MARAIS ARPRT CLEAR     48  45  87 CALM      30.06R
$$
MNZ029>031-032-039>041-046>048-054>057-064-011100-
   West Central Minnesota

CITY           SKY/WX    TMP DP  RH WIND       PRES   REMARKS
FERGUS FALLS   CLEAR     64  61  88 CALM      30.04S
WHEATON        CLEAR     57  55  94 CALM      30.06S
MORRIS           N/A     57  55  94 CALM      30.04S FOG
ALEXANDRIA     PTCLDY    62  60  93 W3        30.06S
ELBOW LAKE     FAIR      61  58  91 CALM      30.04S
WADENA         CLEAR     55  55 100 CALM      30.05R FOG
GLENWOOD       CLEAR     61  61 100 W5        30.06S FOG
APPLETON       CLEAR     59  55  88 CALM      30.05R FOG
BENSON         CLEAR     55  55 100 CALM      30.05S FOG
ORTONVILLE     CLEAR     61  55  82 CALM      30.05R
MADISON        CLEAR     59  55  88 CALM      30.05S
WILLMAR        FAIR      59  55  88 CALM      30.06S
$$
MNZ033>034-036-042>043-049>051-058-059-011100-
   Central Minnesota

CITY           SKY/WX    TMP DP  RH WIND       PRES   REMARKS
ST CLOUD       CLEAR     60  57  89 CALM      30.03R FOG
SAUK CENTRE    FAIR      56  55  95 CALM      30.05R
PAYNESVILLE    CLEAR     52  52 100 SW3       30.06R FOG
AITKIN         HAZE      55  50  82 CALM      30.02R VSB 1/2
PINE RIVER     CLEAR     54  54 100 CALM      30.07S FOG
BRAINERD       CLEAR     55  54  96 CALM      30.04R
STAPLES        CLEAR     55  55 100 CALM      30.04S
LONG PRAIRIE   FAIR      55  55 100 CALM      30.05S FOG
LITTLE FALLS     N/A     55  54  94 CALM      30.04S
LITCHFIELD     PTCLDY    64  61  88 CALM      30.05S
BUFFALO        CLEAR     64  59  84 CALM      30.04S
MAPLE LAKE     CLEAR     63  59  87 CALM      30.05R
$$
MNZ037-044-045-052-053-011100-
   East Central Minnesota

CITY           SKY/WX    TMP DP  RH WIND       PRES   REMARKS
PRINCETON      FOG       57  55  94 CALM      30.03S VSB 1/2
MORA             N/A     55  55 100 CALM      30.04S FOG
CAMBRIDGE      PTCLDY    63  55  77 CALM      30.01R
RUSH CITY      PTCLDY    58  56  95 CALM      30.02S
MOOSE LAKE     MOCLDY    52  52 100 CALM      30.01S FOG
HINCKLEY       FAIR      55  55 100 CALM      30.02R FOG
CLOQUET        CLEAR     54  52  94 CALM      30.03R
MCGREGOR         N/A     54  54 100 CALM      30.04R VSB 1/2
$$
MNZ071>073-080-081-089-090-097-098-011100-
   Southwest Minnesota

CITY           SKY/WX    TMP DP  RH WIND       PRES   REMARKS
MONTEVIDEO     CLEAR     61  55  82 NW3       30.06S
GRANITE FALLS  CLEAR     56  54  92 SW3       30.06F
CANBY          CLEAR     60  55  84 SW3       30.07S
MARSHALL       CLEAR     61  54  77 SW3       30.05S
REDWOOD FALLS  CLEAR     60  56  86 W5        30.05S
OLIVIA         CLEAR     57  54  88 CALM      30.05S
PIPESTONE      CLEAR     57  54  88 CALM      30.07F
WINDOM         FOG       55  54  94 CALM      30.07S VSB<1/4
WORTHINGTON    CLEAR     55  54  94 SW5       30.09S
JACKSON        CLEAR     59  55  88 CALM      30.08S
TRACY          CLEAR     62  56  81 SW6       30.07S
SLAYTON        CLEAR     56  55  97 CALM      30.08F
$$
MNZ065>067-074>077-082>085-091>093-011100-
   South Central Minnesota

CITY           SKY/WX    TMP DP  RH WIND       PRES   REMARKS
MANKATO        CLEAR     61  54  77 CALM      30.06R
NEW ULM        CLEAR     55  55 100 CALM      30.05S
ST JAMES       CLEAR     55  54  94 CALM      30.07R
FAIRMONT       CLEAR     57  52  82 SW3       30.06S
GLENCOE        CLEAR     62  56  83 CALM      30.04S
FARIBAULT      CLEAR     57  52  82 CALM      30.06R
OWATONNA       CLEAR     55  52  88 CALM      30.06R
WASECA         CLEAR     54  50  87 CALM      30.08R
ALBERT LEA     CLEAR     55  54  94 CALM      30.06S FOG
$$
MNZ078>079-086>088-094>096-011100-
   Southeast Minnesota

CITY           SKY/WX    TMP DP  RH WIND       PRES   REMARKS
ROCHESTER      CLEAR     57  53  86 SW7       30.07S
RED WING       CLEAR     57  55  94 CALM      30.02S
STANTON        CLEAR     59  55  86 S5        30.03S
DODGE CENTER   CLEAR     55  54  94 SW6       30.06S
WINONA         CLEAR     59  57  94 CALM      30.03S
AUSTIN         CLEAR     54  54 100 CALM      30.06S
PRESTON        CLEAR     60  56  87 W3        30.07R
$$
ABBREVIATIONS USED IN REMARKS
   TC - TEMPERATURES IN CELSIUS
  WCI - WIND CHILL INDEX
   HX - HEAT INDEX
  VSB - VISIBILITY
$$


USA.gov is the U.S. government's official web portal to all federal, state and local government web resources and services.